This demonstration page uses our WeatherBlox Daily Observations layout. Learn more.

40.92945, -100.16068

Hourly Observations for January 9, 2018

Temp ( °F °C ) Dew Point ( °F °C ) Humidity (%) Winds ( mph kmh ) Pressure ( in mb ) Visibility ( mi km ) Precip ( " mm )
12:15 am 00:15 Clear 40 4.7 28 -2 62 62 SSE 7 11 29.97 1015 10 16.0934 0 0
12:35 am 00:35 Clear 40 4.5 28 -2 63 63 S 7 11 29.97 1015 10 16.0934 0 0
12:55 am 00:55 Clear 41 4.8 28 -2.1 61 61 SSE 3 6 29.97 1015 10 16.0934 0 0
1:15 am 01:15 Clear 41 5.2 28 -2.5 58 58 SSE 3 6 29.97 1015 10 16.0934 0 0
1:35 am 01:35 Clear 40 4.7 28 -2.3 61 61 SSE 8 13 29.97 1015 10 16.0934 0 0
1:55 am 01:55 Clear 40 4.2 28 -2.1 64 64 SSE 7 11 29.94 1014 10 16.0934 0 0
2:15 am 02:15 Clear 39 4 28 -2.2 64 64 ESE 5 7 29.94 1014 10 16.0934 0 0
2:35 am 02:35 Clear 38 3.3 28 -2 69 69 ESE 6 9 29.94 1014 10 16.0934 0 0
2:55 am 02:55 Clear 38 3.3 28 -2 69 69 ESE 3 6 29.97 1015 10 16.0934 0 0
3:15 am 03:15 Clear 35 1.7 28 -2 77 77 E 5 7 29.97 1015 10 16.0934 0 0
3:35 am 03:35 Clear 38 3.1 28 -2.2 69 69 Calm 29.97 1015 10 16.0934 0 0
3:55 am 03:55 Clear 34 1.1 29 -1.8 81 81 SE 7 11 29.97 1015 10 16.0934 0 0
4:15 am 04:15 Clear 37 2.9 28 -2 71 71 SE 10 17 29.91 1013 10 16.0934 0 0
4:35 am 04:35 Clear 37 3 28 -2.5 67 67 SE 9 15 29.91 1013 10 16.0934 0 0
4:55 am 04:55 Clear 37 2.9 27 -2.6 67 67 SE 6 9 29.91 1013 10 16.0934 0 0
5:15 am 05:15 Clear 37 3 27 -2.9 66 66 SE 7 11 29.91 1013 10 16.0934 0 0
5:35 am 05:35 Clear 38 3.2 27 -3 64 64 SE 7 11 29.88 1012 10 16.0934 0 0
5:55 am 05:55 Clear 37 2.6 27 -2.6 69 69 SE 6 9 29.88 1012 10 16.0934 0 0
6:15 am 06:15 Clear 37 2.9 27 -3 66 66 SE 6 9 29.88 1012 10 16.0934 0 0
6:35 am 06:35 Clear 38 3.1 27 -3 65 65 Calm 29.91 1013 10 16.0934 0 0
6:55 am 06:55 Clear 36 2.4 27 -3 68 68 SE 5 7 29.91 1013 10 16.0934 0 0
7:15 am 07:15 Clear 36 2.1 27 -3 69 69 Calm 29.88 1012 10 16.0934 0 0
7:35 am 07:35 Clear 34 0.9 28 -2.5 78 78 ESE 3 6 29.94 1014 10 16.0934 0 0
7:55 am 07:55 Clear 35 1.6 26 -3.1 71 71 SSE 6 9 29.94 1014 10 16.0934 0 0
8:15 am 08:15 Sunny 34 1.1 26 -3.1 74 74 SSE 3 6 29.94 1014 10 16.0934 0 0
8:35 am 08:35 Sunny 33 0.7 26 -3.2 75 75 Calm 29.94 1014 10 16.0934 0 0
8:55 am 08:55 Sunny 34 1.3 26 -3.3 72 72 SSE 5 7 29.94 1014 10 16.0934 0 0
9:15 am 09:15 Sunny 34 1.2 27 -2.6 76 76 Calm 29.94 1014 10 16.0934 0 0
9:35 am 09:35 Sunny 33 0.8 27 -2.6 78 78 Calm 29.94 1014 10 16.0934 0 0
9:55 am 09:55 Sunny 34 1 28 -2.2 79 79 Calm 29.97 1015 10 16.0934 0 0
10:15 am 10:15 Sunny 37 3 27 -2.8 66 66 Calm 29.91 1013 10 16.0934 0 0
10:35 am 10:35 Sunny 38 3.1 27 -2.6 67 67 Calm 29.91 1013 10 16.0934 0 0
10:55 am 10:55 Sunny 41 4.8 28 -2.5 60 60 SSW 5 7 29.91 1013 10 16.0934 0 0
11:15 am 11:15 Sunny 42 5.6 28 -2.4 57 57 SSW 6 9 29.85 1011 10 16.0934 0 0
11:35 am 11:35 Sunny 43 6.2 28 -2.2 55 55 S 6 9 29.85 1011 10 16.0934 0 0
11:55 am 11:55 Sunny 44 6.9 29 -1.8 54 54 SSE 8 13 29.83 1010 10 16.0934 0 0
12:15 pm 12:15 Sunny 46 7.7 29 -1.5 53 53 S 6 9 29.77 1008 10 16.0934 0 0
12:35 pm 12:35 Sunny 48 8.8 29 -1.5 49 49 SW 7 11 29.8 1009 10 16.0934 0 0
12:55 pm 12:55 Sunny 49 9.2 30 -1.1 49 49 W 6 9 29.77 1008 10 16.0934 0 0
1:15 pm 13:15 Sunny 49 9.5 30 -1.2 48 48 WSW 5 7 29.77 1008 10 16.0934 0 0
1:35 pm 13:35 Sunny 50 10 30 -1.1 46 46 Calm 29.74 1007 10 16.0934 0 0
1:55 pm 13:55 Sunny 51 10.7 30 -1 45 45 SSW 7 11 29.71 1006 10 16.0934 0 0
2:15 pm 14:15 Sunny 52 11.2 31 -0.8 44 44 S 9 15 29.71 1006 10 16.0934 0 0
2:35 pm 14:35 Sunny 52 11.3 31 -0.7 44 44 S 9 15 29.71 1006 10 16.0934 0 0
2:55 pm 14:55 Sunny 53 11.5 30 -1.1 42 42 S 6 9 29.68 1005 10 16.0934 0 0
3:15 pm 15:15 Sunny 54 12 31 -0.8 41 41 S 12 19 29.68 1005 10 16.0934 0 0
3:35 pm 15:35 Sunny 54 12.3 31 -0.5 42 42 SSW 8 13 29.71 1006 10 16.0934 0 0
3:55 pm 15:55 Sunny 54 12.1 31 -0.5 42 42 SW 8 13 29.71 1006 10 16.0934 0 0
4:15 pm 16:15 Sunny 53 11.6 31 -0.7 43 43 SW 7 11 29.71 1006 10 16.0934 0 0
4:35 pm 16:35 Sunny 53 11.5 31 -0.5 44 44 SSW 6 9 29.71 1006 10 16.0934 0 0
4:55 pm 16:55 Sunny 50 10.2 32 -0.1 49 49 SSW 5 7 29.74 1007 10 16.0934 0 0
5:15 pm 17:15 Sunny 49 9.3 31 -0.4 51 51 S 3 6 29.74 1007 10 16.0934 0 0
5:35 pm 17:35 Clear 47 8.6 31 -0.8 52 52 ESE 5 7 29.71 1006 10 16.0934 0 0
5:55 pm 17:55 Clear 45 7 30 -0.9 58 58 SSE 6 9 29.71 1006 10 16.0934 0 0
6:15 pm 18:15 Clear 40 4.4 29 -1.5 66 66 S 7 11 29.74 1007 10 16.0934 0 0
6:35 pm 18:35 Clear 41 5 30 -1.1 65 65 SSE 7 11 29.74 1007 10 16.0934 0 0
6:55 pm 18:55 Clear 41 5 29 -1.4 64 64 SSE 7 11 29.74 1007 10 16.0934 0 0
7:15 pm 19:15 Clear 40 4.3 29 -1.6 66 66 SSE 7 11 29.74 1007 10 16.0934 0 0
7:35 pm 19:35 Clear 38 3.4 29 -1.7 70 70 S 6 9 29.77 1008 10 16.0934 0 0
7:55 pm 19:55 Clear 38 3.2 29 -1.8 70 70 S 6 9 29.77 1008 10 16.0934 0 0
8:15 pm 20:15 Clear 38 3.4 28 -2 68 68 SSE 8 13 29.77 1008 10 16.0934 0 0
8:35 pm 20:35 Clear 40 4.5 29 -1.5 65 65 SSE 9 15 29.74 1007 10 16.0934 0 0
8:55 pm 20:55 Clear 40 4.2 29 -1.6 66 66 S 6 9 29.74 1007 10 16.0934 0 0
9:15 pm 21:15 Clear 40 4.3 29 -1.5 66 66 Calm 29.74 1007 10 16.0934 0 0
9:35 pm 21:35 Clear 39 4.1 29 -1.8 66 66 ESE 5 7 29.74 1007 10 16.0934 0 0
9:55 pm 21:55 Clear 34 1.1 28 -2.1 79 79 Calm 29.77 1008 10 16.0934 0 0
10:15 pm 22:15 Clear 41 4.9 29 -1.9 62 62 S 6 9 29.74 1007 10 16.0934 0 0
10:35 pm 22:35 Clear 35 1.6 28 -2.5 74 74 S 5 7 29.77 1008 10 16.0934 0 0
10:55 pm 22:55 Clear 37 2.5 28 -2.1 72 72 SSW 5 7 29.74 1007 10 16.0934 0 0
11:15 pm 23:15 Clear 34 1.1 28 -2.3 78 78 Calm 29.74 1007 10 16.0934 0 0
11:35 pm 23:35 Clear 36 2.4 29 -1.8 74 74 SSW 5 7 29.74 1007 10 16.0934 0 0
11:55 pm 23:55 Clear 33 0.3 27 -2.7 81 81 Calm 29.77 1008 10 16.0934 0 0

Powered by AerisWeather